OBJECT C

Satellite information

Favourite Embed

Satellite Type and Status

UNKNOWNIN ORBIT

Key statistics

Satellite OBJECT C at a glance.

Uptime

556

Days in orbit

Revolutions

≈ 15.0

Per day

Orbit

SSO

Sun Synchronous Orbit

Inclination

97.6

Latest

Satellite identification and parameters

Extended collection of information and parameters for OBJECT C.

Object identification

Identified? True

Debris? False

Object name: OBJECT C

International designator: 2024-110C

Object number (NORAD): 60014

Object ID (CCSDS): 60014

Country: PEOPLES REPUBLIC OF CHINA (PRC)

Current information (Y/N): Y

RCS size: LARGE

Orbital parameters

Period: 96.157 minutes

Inclination: 97.5649 deg

SMA: 6952.626 km

Apoapsis: 583.246 km

Periapsis: 565.736 km

RAAN: 63.9501 deg

Eccentricy: 0.00125918

Argument of periapsis: 55.1839 deg

Mean anomaly: 305.0566 deg

Mean motion: 14.97543508 rev/day

Mean motion (dot): 0.00002388 rev/day2

B* drag term: 0.00020919915 1/REarth

Two-line elements (TLE)

Creation date: Dec. 14, 2025, 3:07 a.m.

Reference frame: TEME

Reference center: EARTH

Epoch: Dec. 13, 2025, 4:07 p.m. UTC

TLE line 0: 0 OBJECT C

TLE line 1: 1 60014U 24110C 25347.67212207 .00002388 00000-0 20920-3 0 9994

TLE line 2: 2 60014 97.5649 63.9501 0012592 55.1839 305.0566 14.97543508 74032

Live tracking on map

Real-time ground track for satellite OBJECT C.

In-orbit conjunctions

There are no conjunctions computed for OBJECT C, at the moment. Check back to stay up to date, as we update our databases every day.

Go to all conjunctions

Associated space launch

Carried 3 satellites to polar orbit, details TBD: * TEE-01B *Naxing-3A/B

OBJECT C was lifted into orbit during the mission ‘Ceres-1 | 3 satellites’, on board a Ceres-1 space rocket.

The launch took place on June 6, 2024, 5 a.m. from Launch Area 95A.

For more information about the launch, click the button.

Launch to space Ceres-1 | 3 satellites
Ceres-1 | 3 satellites

Agency: N/A

Status: Launch Successful

Launch date: June 6, 2024, 5 a.m. UTC

Rocket: Ceres-1

Launch pad: Launch Area 95A

Location: Jiuquan Satellite Launch Center, People's Republic of China

...

Latest news about this satellite

There are no fresh news available about this satellite. Check back as we update our databases every day.


Newsletter sign-up

Weekly statistics, charts and insights to help you stay on top of the space industry.